Dewpoint
7 8 10 10 9 9 9 8 9 10 9 9 10 11 9 9 10 10 10 10 10 10 10 10 11 12 13 14 13 13 14 14 14 13 13 14 13 13 13 13 15 16
6 8 9 10 9 8 8 7 7 8 8 8 8 10 10 9 10 9 9 10 10 10 10 10 10 11 12 13 12 12 13 13 13 13 14 14 13 14 14 14 15 16
5 7 9 9 8 7 7 6 6 5 5 6 6 7 8 7 7 7 7 8 9 10 10 9 9 10 11 12 12 12 12 11 11 11 12 12 13 13 14 14 14 15
3 5 7 7 6 5 6 6 5 4 2 3 4 4 4 4 3 3 4 5 7 9 9 9 8 9 10 11 11 11 11 11 10 10 10 10 11 12 13 14 14 14
2 3 5 6 5 4 5 5 5 3 2 1 1 1 2 1 0 0 1 2 4 7 9 10 9 9 9 9 9 10 10 10 10 10 10 9 9 10 11 13 14 14
1 1 2 4 4 3 4 4 3 3 2 1 0 0 1 1 0 -0 1 1 1 4 7 8 8 9 9 9 9 9 9 9 9 10 10 9 9 9 10 10 12 14
3 1 1 2 2 2 3 2 2 2 2 1 1 1 0 0 1 0 -1 0 1 1 3 5 6 6 8 9 9 9 8 8 8 9 9 9 9 9 9 9 10 12
6 3 1 1 1 2 1 1 1 1 1 1 1 1 1 0 0 0 0 -0 0 1 2 2 3 4 5 7 8 8 8 8 8 9 9 9 9 9 9 9 9 9
11 8 5 3 1 1 0 0 1 0 0 1 1 0 0 0 0 0 0 -0 -0 0 1 2 3 3 4 4 5 6 6 7 7 8 8 8 8 9 9 9 9 9
13 12 10 7 4 2 1 0 0 -0 -1 -1 -0 -0 -0 -0 0 -0 -0 -0 -0 -1 -0 1 2 3 3 3 4 5 5 6 6 6 6 7 7 8 8 9 9 9
14 13 12 10 7 5 3 2 1 -0 -1 -2 -2 -2 -2 -2 -1 -1 -1 -1 -1 -1 -1 -1 0 1 1 1 2 3 4 5 5 6 6 5 6 6 7 8 9 9
15 14 14 12 10 8 6 5 4 2 1 0 -0 -1 -1 -2 -2 -2 -2 -2 -2 -1 -1 -2 -1 -0 0 1 1 1 2 3 4 5 5 5 5 5 6 7 7 8
16 15 15 13 12 11 10 8 7 5 4 2 2 1 1 -1 -1 -1 -2 -2 -2 -2 -2 -2 -1 -1 0 0 1 2 2 3 3 4 5 5 5 5 5 5 6 7
17 16 16 15 14 13 12 11 9 8 7 5 4 3 3 2 1 -0 -1 -1 -1 -2 -2 -2 -1 -0 -0 1 1 2 3 3 3 3 4 5 5 5 4 4 5 5
17 17 16 16 16 15 14 13 12 10 9 8 7 6 5 4 3 2 1 1 -0 -1 -1 -1 -1 -0 -0 1 1 3 4 4 4 4 4 4 5 5 5 4 4 4
17 17 17 17 17 16 16 15 14 13 11 10 9 8 7 6 4 4 3 2 1 0 -1 -0 -0 -0 0 0 1 2 4 5 4 5 5 5 5 5 5 5 4 4
18 18 18 18 18 18 17 17 16 15 14 13 11 10 9 8 7 6 4 3 3 1 1 1 1 0 0 1 2 3 4 5 5 5 5 6 6 6 5 4 4 4
18 18 18 18 18 18 17 17 17 16 16 15 13 12 11 10 9 8 7 5 4 3 3 3 2 2 1 2 2 3 4 6 6 6 6 6 6 5 4 4 4 4
18 18 18 18 18 18 18 17 17 17 17 16 15 13 13 12 11 10 9 8 7 6 5 4 4 3 3 3 3 4 6 8 8 8 7 7 6 5 5 4 3 3
18 19 19 19 19 19 18 18 18 17 17 16 16 15 14 13 13 12 11 10 9 8 7 6 5 4 4 4 5 6 8 9 10 10 10 9 7 6 5 5 4 4
18 18 18 19 19 19 19 19 18 17 17 17 16 15 15 14 14 13 12 11 10 10 9 8 7 6 5 5 6 8 9 11 11 12 12 11 9 8 7 6 5 5
16 16 17 18 19 19 19 19 19 18 18 17 16 16 15 15 14 14 14 13 12 11 11 10 8 8 8 7 8 9 11 12 13 13 13 13 11 9 7 5 5 5
16 16 17 18 18 18 19 19 19 19 18 18 17 17 16 15 15 15 15 14 13 12 11 10 10 9 9 9 9 11 12 13 14 14 14 14 12 10 7 5 5 5
16 16 16 17 18 18 18 18 19 19 19 18 18 17 16 16 16 15 15 15 14 13 11 11 11 11 10 10 10 12 14 15 15 14 14 14 13 10 8 6 4 4
17 17 17 17 17 17 17 18 18 19 18 18 18 17 17 16 16 16 15 15 14 14 13 12 12 11 12 11 11 13 14 15 15 15 14 14 12 10 8 6 5 4
17 17 17 17 17 17 17 18 18 19 19 18 18 18 17 16 16 16 15 15 14 15 14 14 13 13 13 13 12 13 14 15 15 16 15 15 13 10 8 6 5 3
Wind_Speed
37 36 35 34 31 30 28 28 29 27 25 24 24 22 20 19 17 16 16 15 15 14 14 13 13 14 13 12 12 11 10 10 9 10 10 9 9 9 10 10 10 10
39 39 38 36 33 31 29 28 28 27 25 24 23 22 21 19 17 17 16 16 16 15 15 15 15 15 14 14 13 12 11 11 10 11 11 10 10 10 10 10 10 11
41 41 40 39 36 33 31 29 27 26 24 23 22 21 20 19 18 17 17 17 17 17 17 16 15 15 15 14 14 13 12 11 10 10 10 11 11 11 11 11 11 11
43 43 43 41 38 35 33 31 30 27 26 24 23 21 20 20 19 18 17 17 18 18 18 17 16 16 15 15 15 15 14 13 11 11 10 11 12 12 12 12 12 12
44 44 44 44 41 38 36 35 33 31 29 27 25 23 22 21 20 19 18 18 18 18 19 18 16 16 16 16 16 16 16 15 13 14 13 12 12 13 13 13 13 13
45 45 45 45 43 41 39 38 36 34 32 30 27 26 25 23 22 21 20 20 19 19 19 19 18 17 16 16 17 16 17 16 15 16 16 14 13 13 14 14 14 14
46 46 45 45 45 43 42 40 39 37 35 33 31 29 28 26 25 24 23 22 21 21 20 20 20 19 18 18 18 17 17 17 17 18 18 16 14 14 15 14 14 15
47 46 46 46 46 45 44 42 41 39 38 36 35 33 31 30 28 27 26 25 24 23 22 22 21 21 20 19 19 18 17 17 18 19 19 18 17 16 16 15 15 15
49 48 47 47 47 46 45 44 42 41 39 38 37 36 34 33 31 30 29 28 27 25 24 23 23 22 22 22 21 21 20 19 19 19 19 19 19 18 17 17 16 16
50 50 49 49 48 48 47 45 44 42 41 40 39 38 37 35 34 32 31 30 30 29 27 26 25 24 23 23 23 23 22 21 20 20 20 19 19 19 18 18 18 17
48 50 50 50 50 49 48 47 46 44 43 42 40 40 39 37 36 35 34 33 32 31 30 29 27 26 25 24 24 24 23 23 22 22 22 21 19 19 19 19 19 18
47 48 50 51 51 50 49 48 47 47 45 44 42 41 40 39 38 37 36 35 34 33 32 31 30 29 28 26 25 25 25 24 23 23 23 22 21 20 19 19 19 19
46 47 48 49 51 50 50 49 48 48 48 47 45 43 42 41 40 39 38 37 35 34 34 33 32 32 31 29 28 28 27 26 25 24 23 23 23 22 21 20 20 20
47 46 46 46 47 49 50 50 49 49 49 48 47 46 45 43 42 40 39 38 37 36 35 34 34 34 33 32 31 30 30 28 27 27 25 25 24 23 22 22 21 20
46 46 46 45 45 47 48 49 50 49 49 49 49 49 47 45 44 42 41 40 39 38 37 36 36 36 35 34 33 32 31 31 29 28 27 26 25 24 24 23 22 22
46 45 45 45 45 46 47 48 49 49 49 49 49 49 49 47 46 45 44 42 41 39 39 38 38 37 36 35 33 32 32 32 31 30 29 28 27 26 25 24 23 22
45 45 44 44 44 45 45 46 47 48 49 49 49 49 49 48 47 47 45 44 43 42 41 40 40 39 37 35 34 33 32 32 32 31 31 30 29 28 26 25 24 23
45 44 44 44 43 43 43 43 44 47 48 48 49 49 49 49 48 48 47 45 44 43 43 42 41 40 38 36 35 33 33 33 32 32 32 31 30 29 28 26 25 24
45 44 44 43 43 42 40 40 41 45 47 48 49 49 49 49 49 48 47 46 45 45 44 43 42 41 39 38 36 34 33 34 34 34 33 32 31 30 29 28 27 26
44 44 44 44 43 42 40 39 39 41 44 47 48 48 48 49 49 49 48 47 46 45 44 44 43 42 40 39 38 36 34 34 34 35 34 34 33 31 30 29 28 28
46 46 45 45 44 43 42 41 40 39 41 44 47 48 48 49 49 50 49 48 47 45 45 44 43 41 40 40 38 36 34 33 34 35 36 35 34 33 32 31 30 29
47 48 48 47 45 45 45 44 43 41 40 41 44 46 47 48 49 50 50 49 47 46 45 44 42 41 40 40 38 36 34 33 33 35 36 36 35 34 33 32 31 31
46 47 49 49 47 46 46 45 45 43 41 40 42 45 46 48 49 49 50 49 48 47 45 44 42 40 40 39 38 36 34 33 33 33 34 35 35 34 33 33 32 32
45 47 48 49 48 48 47 46 45 44 43 42 42 43 44 46 48 48 49 49 49 48 46 44 42 40 39 38 37 37 36 34 32 32 32 33 33 32 33 33 33 33
46 47 48 48 49 49 48 47 46 45 44 43 42 42 43 44 46 47 48 49 49 48 47 45 43 41 39 38 37 37 37 35 33 32 32 31 30 30 31 33 34 34
48 49 48 47 48 49 48 46 46 46 45 44 43 43 42 43 45 47 48 48 48 48 47 46 44 42 41 39 38 38 38 36 35 35 34 32 31 29 29 31 32 33
Wind_Direction
207 208 209 209 209 210 209 206 206 208 208 203 200 204 208 206 203 204 205 206 207 209 210 209 207 206 206 208 210 207 203 204 205 203 201 197 193 194 194 192 187 182
208 209 210 212 212 212 213 209 208 210 210 208 206 204 206 208 208 208 208 210 211 212 213 214 211 206 206 211 216 217 212 210 208 203 203 203 197 197 200 197 195 190
210 210 211 214 215 214 214 212 212 213 214 215 212 208 206 207 210 213 212 212 214 216 217 215 212 209 207 209 216 222 222 220 217 212 210 209 205 204 204 203 203 199
211 211 212 216 218 217 216 214 215 217 218 219 218 215 212 211 214 216 215 215 214 215 219 219 215 213 212 211 214 221 227 228 227 226 220 215 215 213 209 207 209 206
212 213 214 216 219 220 218 217 218 219 220 222 221 220 219 217 217 218 218 219 217 213 215 219 220 219 218 218 216 219 226 229 229 230 228 221 218 217 215 213 213 211
213 214 215 217 219 220 220 220 221 221 221 222 222 222 222 221 221 222 222 224 224 219 216 218 221 222 221 223 222 222 225 227 227 229 231 228 222 219 217 216 216 215
214 215 216 217 219 221 222 222 223 223 223 224 224 223 223 223 223 225 227 228 229 227 224 223 222 222 223 224 226 226 224 225 227 229 231 231 228 223 219 219 220 219
217 216 217 218 220 222 223 224 224 224 225 225 226 226 225 225 225 226 230 232 232 231 231 230 228 226 224 224 228 230 228 226 227 228 231 231 231 229 224 222 223 223
221 219 218 219 220 222 224 225 226 226 226 227 227 228 228 227 227 228 230 232 234 233 233 233 233 231 228 227 228 231 233 232 230 230 231 230 231 233 231 228 227 227
224 223 221 220 221 223 224 225 227 228 228 229 230 230 230 230 230 230 231 233 235 235 235 234 234 234 233 231 229 231 233 235 235 236 235 233 233 234 234 233 230 229
226 225 224 223 223 224 225 226 227 229 230 231 231 232 233 233 233 233 233 234 235 237 237 237 236 236 236 235 233 233 234 234 236 237 238 238 237 236 236 235 234 233
225 226 226 226 226 226 226 227 228 229 230 232 232 233 234 235 235 235 235 235 236 237 238 239 240 240 240 240 240 239 238 236 235 235 237 239 239 237 237 236 237 238
225 226 228 229 229 229 229 229 229 230 231 232 233 234 235 236 236 236 236 237 237 237 238 239 241 243 244 245 246 246 245 241 238 235 234 236 238 238 237 237 238 240
227 228 229 230 231 232 232 231 231 231 232 233 234 235 235 236 237 238 238 238 238 239 239 239 241 243 245 246 247 248 248 246 243 240 236 235 236 237 238 238 239 240
227 228 229 231 232 233 233 233 233 233 234 234 235 235 236 237 238 238 239 239 239 239 240 240 240 242 244 246 247 248 248 249 247 245 242 240 238 238 239 240 240 241
227 229 230 231 232 233 235 235 234 234 234 235 235 236 237 237 237 238 239 240 240 240 240 240 241 242 244 246 247 248 248 249 250 249 247 246 243 242 241 242 243 242
228 229 231 232 233 234 235 236 236 234 234 234 235 236 237 238 237 237 238 239 240 240 240 240 241 243 245 245 246 247 247 248 250 250 250 249 248 247 246 245 245 246
228 230 231 233 234 235 235 236 236 235 234 233 234 236 237 238 238 238 238 239 240 241 241 241 242 243 245 246 246 246 246 246 248 249 250 251 251 250 250 249 248 249
229 230 231 232 234 235 235 237 237 236 234 233 233 235 236 237 238 238 238 238 239 240 241 242 243 244 245 246 247 246 246 246 246 248 249 250 251 251 252 251 251 251
230 231 233 234 235 235 235 236 238 238 236 234 233 234 235 236 238 238 239 239 239 240 242 243 244 244 244 245 246 247 247 247 247 248 249 250 251 251 252 252 252 252
233 235 235 234 234 235 235 237 239 240 238 235 233 233 234 236 237 238 239 240 239 239 241 242 244 244 245 245 245 246 247 247 247 247 248 250 250 250 251 251 252 252
236 237 237 235 233 233 234 237 239 241 240 237 235 234 235 236 237 238 239 240 240 239 240 242 244 245 245 245 245 245 245 246 247 247 248 249 249 249 248 249 250 251
238 238 237 236 234 232 234 236 238 240 240 239 236 235 234 235 236 238 239 239 240 239 239 241 242 244 245 245 245 244 244 244 245 245 246 248 248 247 246 246 247 248
240 239 238 236 235 234 235 236 237 239 240 239 238 237 236 236 236 238 239 239 239 240 240 241 242 244 244 245 245 244 243 242 243 244 245 246 246 245 243 243 244 245
243 242 239 238 237 237 237 237 237 238 239 240 240 240 239 238 236 237 238 239 239 240 241 242 243 244 245 245 244 243 242 242 242 242 243 244 245 244 244 243 243 243
244 243 241 241 241 240 239 238 237 237 237 239 240 240 240 238 236 236 237 238 239 239 240 242 243 244 245 245 245 244 242 241 240 241 242 243 245 246 245 245 244 244
Height
1563 1565 1566 1569 1571 1573 1574 1576 1577 1579 1581 1582 1583 1584 1586 1587 1589 1589 1591 1591 1592 1593 1593 1594 1594 1595 1595 1595 1596 1596 1597 1597 1598 1599 1599 1599 1599 1599 1599 1600 1600 1600
1561 1562 1564 1567 1569 1571 1573 1575 1576 1578 1579 1581 1582 1584 1585 1586 1588 1588 1589 1590 1591 1592 1593 1593 1594 1594 1594 1594 1595 1595 1596 1597 1597 1598 1598 1598 1599 1599 1599 1599 1599 1600
1558 1560 1562 1564 1566 1569 1571 1573 1575 1576 1578 1580 1581 1583 1584 1585 1586 1587 1588 1589 1590 1591 1591 1592 1593 1593 1593 1594 1594 1595 1595 1596 1596 1597 1597 1598 1598 1598 1598 1599 1599 1599
1555 1558 1559 1562 1564 1566 1569 1571 1573 1574 1576 1578 1579 1581 1583 1584 1585 1586 1587 1588 1589 1589 1590 1591 1592 1592 1592 1593 1593 1594 1594 1595 1595 1596 1596 1597 1597 1597 1598 1598 1598 1598
1552 1555 1557 1559 1562 1564 1567 1568 1570 1572 1574 1576 1577 1579 1581 1582 1584 1584 1586 1586 1587 1588 1589 1589 1590 1591 1591 1592 1592 1593 1593 1594 1594 1595 1595 1596 1596 1596 1597 1597 1597 1597
1549 1551 1554 1557 1559 1562 1564 1566 1568 1569 1571 1573 1575 1577 1579 1580 1582 1583 1584 1585 1585 1586 1587 1588 1588 1589 1590 1590 1591 1591 1592 1592 1593 1593 1594 1594 1595 1595 1596 1596 1596 1596
1545 1548 1551 1554 1557 1559 1561 1563 1565 1567 1569 1571 1573 1575 1576 1578 1580 1581 1582 1583 1584 1585 1585 1586 1587 1587 1588 1589 1589 1590 1590 1591 1592 1592 1592 1593 1594 1594 1594 1595 1595 1595
1542 1545 1548 1551 1553 1556 1558 1560 1562 1564 1567 1569 1570 1572 1574 1576 1578 1579 1580 1581 1582 1583 1583 1584 1585 1585 1586 1587 1587 1588 1589 1589 1590 1591 1591 1591 1592 1592 1593 1593 1594 1594
1540 1542 1545 1547 1550 1552 1554 1557 1559 1561 1564 1566 1567 1569 1571 1573 1575 1577 1578 1579 1580 1581 1581 1582 1583 1584 1584 1585 1586 1586 1587 1588 1588 1589 1589 1590 1590 1591 1591 1592 1592 1592
1538 1540 1542 1544 1546 1548 1551 1553 1556 1558 1560 1562 1564 1566 1568 1570 1572 1574 1575 1576 1577 1578 1579 1580 1581 1581 1582 1583 1583 1584 1585 1586 1587 1587 1588 1588 1589 1589 1589 1590 1590 1591
1534 1537 1539 1540 1542 1544 1547 1550 1553 1555 1557 1559 1561 1563 1565 1567 1569 1570 1572 1573 1574 1575 1576 1577 1578 1579 1580 1580 1581 1582 1583 1584 1585 1585 1586 1587 1587 1587 1588 1588 1588 1589
1529 1532 1535 1537 1539 1542 1544 1547 1549 1551 1554 1555 1558 1560 1561 1563 1565 1566 1568 1569 1571 1572 1573 1574 1575 1576 1577 1578 1579 1580 1581 1582 1583 1583 1584 1585 1585 1586 1586 1586 1586 1587
1526 1528 1531 1534 1537 1539 1541 1543 1545 1548 1550 1552 1554 1556 1558 1560 1561 1563 1565 1566 1568 1569 1570 1572 1573 1574 1575 1576 1576 1577 1578 1579 1580 1581 1582 1582 1583 1584 1584 1585 1585 1585
1524 1526 1528 1530 1533 1536 1538 1540 1542 1544 1546 1549 1551 1553 1554 1556 1558 1560 1562 1563 1565 1566 1568 1569 1570 1571 1572 1573 1574 1575 1575 1577 1578 1579 1580 1580 1581 1582 1582 1583 1583 1583
1522 1524 1526 1528 1530 1532 1534 1537 1539 1541 1543 1545 1547 1549 1551 1553 1555 1557 1558 1560 1561 1563 1564 1566 1567 1568 1569 1570 1571 1572 1573 1574 1575 1576 1577 1578 1578 1579 1580 1580 1581 1581
1519 1521 1523 1525 1527 1528 1530 1532 1535 1537 1539 1541 1543 1545 1547 1549 1552 1553 1555 1556 1558 1559 1561 1562 1563 1564 1565 1567 1568 1569 1570 1571 1572 1572 1574 1574 1576 1576 1577 1578 1578 1579
1516 1518 1519 1521 1522 1524 1526 1528 1530 1533 1535 1537 1539 1541 1544 1546 1548 1549 1551 1552 1554 1555 1557 1558 1559 1560 1562 1564 1565 1566 1568 1568 1569 1570 1570 1571 1572 1573 1574 1575 1575 1576
1511 1512 1514 1515 1517 1519 1521 1523 1526 1528 1531 1533 1535 1537 1540 1542 1544 1545 1547 1549 1550 1551 1553 1554 1555 1557 1559 1560 1562 1563 1564 1565 1566 1567 1567 1568 1569 1570 1571 1572 1572 1573
1505 1507 1508 1510 1512 1515 1517 1519 1521 1523 1526 1528 1530 1533 1536 1538 1539 1541 1543 1545 1546 1547 1549 1550 1552 1553 1555 1557 1558 1560 1561 1562 1563 1564 1564 1565 1566 1567 1568 1569 1569 1570
1504 1506 1507 1508 1509 1512 1514 1516 1517 1519 1521 1523 1526 1529 1532 1533 1535 1537 1539 1541 1542 1544 1545 1546 1548 1550 1552 1553 1555 1557 1558 1560 1560 1561 1562 1562 1563 1564 1565 1565 1566 1566
1503 1504 1504 1506 1507 1509 1510 1512 1513 1515 1517 1520 1522 1525 1527 1529 1532 1533 1535 1536 1538 1540 1542 1543 1544 1546 1548 1550 1552 1554 1556 1557 1558 1559 1559 1560 1560 1561 1561 1562 1562 1563
1498 1499 1500 1501 1503 1504 1505 1507 1508 1511 1513 1516 1519 1521 1524 1526 1528 1530 1531 1533 1535 1537 1538 1539 1540 1542 1544 1546 1548 1551 1553 1554 1555 1556 1557 1557 1557 1558 1558 1558 1559 1559
1495 1495 1495 1497 1499 1500 1500 1501 1504 1507 1510 1513 1515 1517 1520 1522 1524 1526 1528 1530 1532 1533 1535 1536 1537 1539 1541 1543 1545 1548 1550 1552 1553 1553 1554 1554 1554 1554 1554 1555 1555 1556
1492 1492 1493 1494 1495 1496 1497 1498 1501 1503 1506 1509 1511 1513 1515 1518 1520 1523 1525 1527 1529 1530 1531 1533 1534 1536 1538 1540 1542 1544 1547 1549 1550 1551 1551 1551 1550 1551 1551 1551 1551 1552
1489 1489 1490 1491 1492 1492 1494 1496 1498 1500 1502 1505 1507 1509 1511 1514 1517 1520 1522 1523 1525 1527 1529 1530 1532 1533 1535 1537 1539 1541 1544 1546 1547 1548 1548 1548 1548 1548 1547 1547 1548 1548
1485 1486 1487 1488 1488 1489 1491 1493 1495 1497 1500 1501 1503 1506 1508 1511 1513 1515 1517 1519 1522 1524 1526 1527 1529 1530 1532 1533 1536 1538 1540 1542 1544 1544 1544 1545 1545 1545 1544 1544 1544 1545